Location: Blachownia
(50.7807°N, 18.9578°E)
Time: 07:20:27
(UTC+02:00)

ISS - Visible Passes

Search period start: 27 May 2018 00:00
Search period end: 06 June 2018 00:00
Orbit: 402 x 407 km, 51.6° (Epoch: 27 May)

Date Brightness Start Highest point End Pass type
(mag) Time Alt. Az. Time Alt. Az. Time Alt. Az.
27 May -3.9 00:23:09 10° WNW 00:26:25 63° SSW 00:26:26 63° SSW visible
27 May -3.7 21:54:23 10° W 21:57:40 76° N 22:00:58 10° E visible
27 May -4.0 23:30:57 10° WNW 23:34:14 84° SSW 23:35:44 30° ESE visible
28 May -1.5 01:07:40 10° W 01:08:21 14° W 01:08:21 14° W visible
28 May -3.8 22:38:44 10° W 22:42:01 82° N 22:45:05 11° E visible
29 May -2.9 00:15:18 10° W 00:17:42 34° WSW 00:17:42 34° WSW visible
29 May -3.6 21:46:28 10° W 21:49:46 74° N 21:53:02 10° E visible
29 May -3.8 23:23:00 10° W 23:26:14 56° SSW 23:27:06 40° SSE visible
30 May -3.9 22:30:45 10° WNW 22:34:02 77° SSW 22:36:31 16° ESE visible
31 May -2.0 00:07:35 10° W 00:09:08 19° WSW 00:09:08 19° WSW visible
31 May -3.8 21:38:30 10° WNW 21:41:47 86° N 21:45:04 10° E visible
31 May -3.0 23:15:06 10° W 23:18:06 33° SSW 23:18:35 31° S visible
01 Jun -3.5 22:22:46 10° W 22:25:57 49° SSW 22:28:04 18° SE visible
02 Jun -1.2 00:00:30 10° WSW 00:00:41 10° WSW 00:00:41 10° WSW visible
02 Jun -3.8 21:30:28 10° WNW 21:33:43 69° SSW 21:36:58 10° ESE visible
02 Jun -2.1 23:07:24 10° W 23:09:48 19° SW 23:10:11 19° SSW visible
03 Jun -2.6 22:14:49 10° W 22:17:42 29° SSW 22:19:42 16° SSE visible
05 Jun -1.7 22:07:10 10° W 22:09:17 16° SW 22:11:24 10° S visible
